Portada
METAR-TAF:

METAR-TAF

Aeroports :

Abumusa, Iran

latitud: 25-52-33N, longitud: 055-02-01E, altitud: 7 m

Observació

L'informe es va fer fa 7 hores i 40 minuts, a les 15:00 UTC
Vent 4 kt del Est/Nord-Est
Temperatura 26°C
Humitat 18%
Pressió 1015 hPa
Visibilitat 10 km o més
Escasses núvols a una alçada de 2500 ft

METAR: OIBA 131500Z 06004KT 9999 FEW025 26/M00 Q1015

Hora: 02:10 (22:40 UTC)


TAF: manca

Observacions i pronòstics meteorològics de més de 4000 aeroports (METAR i TAF).

Les estacions disponibles són els punts grocs i vermells al mapa.

Posi el ratolí al punt desitjat per veure el nom de l'estació.

Feu clic per veure les observacions i els pronòstics meteorològics.

Per canviar el mapa: feu clic els botons verds amb una creu de color negre per apropar; al botó verd amb un guió per allunyar la imatge; o en les fletxes verdes per a mapes adjacents.


METAR-TAF: